Regional Weather Roundup
Issued by NWS

Home | Current Version | Previous Version | Graphics & Text | Print | Product List | Glossary On
Versions: 1 2 3 4 5 6 7 8 9 10 11 12 13 14 15 16 17 18 19 20 21 22 23 24 25 26 27
000
ASUS45 KPSR 161110
RWRAZ

ARIZONA HOURLY REGIONAL WEATHER ROUNDUP
NATIONAL WEATHER SERVICE PHOENIX AZ
400 AM MST MON JAN 16 2017

NOTE: FAIR INDICATES FEW OR NO CLOUDS BELOW 12,000 FEET WITH NO
SIGNIFICANT WEATHER AND/OR OBSTRUCTIONS TO VISIBILITY.

AZZ001>003-036-161200-
NORTHWEST ARIZONA

CITY           SKY/WX    TMP DP  RH WIND       PRES   REMARKS
BULLHEAD CITY  PTCLDY    54  34  47 N21       30.03S
KINGMAN        PTCLDY    35  29  78 E6        30.04S WCI  30
$$

AZZ004>008-015-016-018-161200-
NORTH CENTRAL ARIZONA

CITY           SKY/WX    TMP DP  RH WIND       PRES   REMARKS
GRAND CANYON   PTCLDY    29  28  96 CALM      30.00S
WILLIAMS       CLOUDY    32  32 100 NW5       29.99F WCI  27
PRESCOTT       CLOUDY    39  37  92 CALM      29.99F
FLAGSTAFF      LGT SNOW  32  30  92 VRB3      29.98S FOG
PAYSON         CLOUDY    41  39  93 W5        30.01F
PAGE           CLOUDY    41  24  51 NW9       29.98S
$$

AZZ009>014-017-161200-
NORTHEAST ARIZONA

CITY           SKY/WX    TMP DP  RH WIND       PRES   REMARKS
WINSLOW        CLOUDY    37  36  96 W5        29.97F WCI  33
SAINT JOHNS    CLOUDY    38  38 100 NW5       29.96F WCI  34
SHOW LOW       LGT RAIN  34  32  93 SW6       29.99F WCI  29
$$

AZZ023-161200-
GREATER PHOENIX AREA

CITY           SKY/WX    TMP DP  RH WIND       PRES   REMARKS
PHOENIX        MOCLDY    53  48  83 E3        29.99F
BUCKEYE          N/A     46  46 100 N5        30.01F
LUKE AFB       CLOUDY    52  52  99 S8        29.98F
DEER VALLEY    CLOUDY    52  49  89 S5        29.99F
SCOTTSDALE     CLOUDY    52  49  89 CALM      30.00F
MESA-GATEWAY   PTCLDY    50  48  93 SE5       30.01F
$$

AZZ027-028-161200-
SOUTHWEST MARICOPA COUNTY AND PINAL COUNTY

CITY           SKY/WX    TMP DP  RH WIND       PRES   REMARKS
CASA GRANDE    CLOUDY    50  48  93 S5        30.01F
$$

AZZ503-504-507>509-161200-
SOUTHEAST ARIZONA

CITY           SKY/WX    TMP DP  RH WIND       PRES   REMARKS
TUCSON         CLOUDY    49  46  90 CALM      30.03F
DAVIS-MONTHAN  CLOUDY    46  46 100 S5        30.02S
NOGALES        CLOUDY    43  40  89 CALM      30.01F
SIERRA VISTA   CLOUDY    41  38  91 SW8       30.02F
DOUGLAS        CLOUDY    38  36  92 SE5       30.02F WCI  34
SAFFORD        MOCLDY    43  41  93 SE6       29.98F
$$

AZZ020-021-025-026-031-161200-
SOUTHWEST ARIZONA

CITY           SKY/WX    TMP DP  RH WIND       PRES   REMARKS
YUMA           NOT AVBL
$$

CAZ031-033-041-043-047-048-061-161200-
SOUTHERN CALIFORNIA

CITY           SKY/WX    TMP DP  RH WIND       PRES   REMARKS
DOWNTOWN L.A.  PTCLDY    55  51  86 CALM      30.05S
L.A. AIRPORT   CLOUDY    55  52  89 NE5       30.05F
SAN DIEGO      MOCLDY    54  50  86 CALM      30.07S
BURBANK        MOCLDY    50  46  86 CALM      30.04F
ONTARIO        MOCLDY    51  49  92 CALM      30.04F
RIVERSIDE      MOCLDY    45  32  60 CALM      30.05F
PALM SPRINGS   CLEAR     51  43  74 NW6       30.03S
IMPERIAL       CLEAR     51  45  79 S3        30.00S
BLYTHE         CLEAR     47  43  86 N6        30.00S
NEEDLES        PTCLDY    48  39  71 W3        30.02S
$$

NVZ020-UTZ003-161200-
SOUTHERN NEVADA-UTAH

CITY           SKY/WX    TMP DP  RH WIND       PRES   REMARKS
LAS VEGAS      CLOUDY    45  31  58 SE6       30.06S
SALT LAKE CITY CLOUDY    26  22  84 NW7       30.23S WCI  18
$$

NMZ009-TXZ055-161200-
NEW MEXICO-WEST TEXAS

CITY           SKY/WX    TMP DP  RH WIND       PRES   REMARKS
ALBUQUERQUE    CLOUDY    36  36 100 CALM      29.91S
EL PASO        PTCLDY    41  34  76 SW10      29.97S
$$


........................KEY........................
SKY/WX - SKY CONDITION/WEATHER
TMP    - TEMPERATURE IN FAHRENHEIT
DP     - DEW POINT IN FAHRENHEIT
RH     - RELATIVE HUMIDITY IN PERCENT
WIND   - DIRECTION AND SPEED IN MILES PER HOUR (MPH)
VRB    - VARIABLE WIND DIRECTION
PRES   - MEAN SEA LEVEL PRESSURE IN INCHES OF MERCURY
         F - FALLING PRESSURE   R - RISING PRESSURE
         S - STEADY PRESSURE
VSB    - VISIBILITY IN MILES
HX     - HEAT INDEX IN FAHRENHEIT
WCI    - WIND CHILL INDEX IN FAHRENHEIT
TC     - TEMPERATURE IN CELSIUS WHICH IS ALSO KNOWN AS
         TEMPERATURE IN CENTIGRADE
AFB    - AIR FORCE BASE
         LUKE AFB IS LUKE AIR FORCE BASE
         DAVIS-MONTHAN IS DAVIS-MONTHAN AIR FORCE BASE
NAS    - NAVAL AIR STATION
         EL CENTRO NAS IS EL CENTRO NAVAL AIR STATION
N/A    - NOT AVAILABLE





USA.gov is the U.S. government's official web portal to all federal, state and local government web resources and services.